Terminal Aerodrome Forecast
Issued by NWS Sterling, VA

Current Version | Previous Version | Graphics & Text | Print | Product List | Glossary On
Versions: 1 2 3 4 5 6 7 8 9 10 11 12 13 14 15 16 17 18 19 20 21 22 23 24
000
FTUS41 KLWX 160358 AAA
TAFDCA
TAF AMD
KDCA 160358Z 1604/1706 13004KT P6SM OVC010
     FM160800 VRB03KT P6SM BKN025 BKN090
     FM161100 VRB03KT P6SM BKN060
     FM170300 VRB04KT 5SM -SN OVC040=

USA.gov is the U.S. government's official web portal to all federal, state and local government web resources and services.